Orbital Elements at Epoch 2459200.5 (2020-Dec-17.0) TDB
Reference: JPL 11 (heliocentric ecliptic J2000)
Element | Value | Uncertainty (1-sigma) | Units |
e | .1290298271627103 | 7.2435e-08 | |
a | 2.734577188867171 | 2.3369e-08 | au |
q | 2.38173516682455 | 1.9921e-07 | au |
i | 2.247285079440827 | 5.8323e-06 | deg |
node | 256.7643603605981 | 0.00018754 | deg |
peri | 285.5411937891415 | 0.00018883 | deg |
M | 234.7329861747832 | 2.6424e-05 | deg |
tp | 2459775.235377621653 (2022-Jul-14.73537762) | 0.00012557 | TDB |
period | 1651.709653049496 4.52 | 2.1173e-05 5.797e-08 | d yr |
n | .2179559823576402 | 2.7939e-09 | deg/d |
Q | 3.087419210909793 | 2.6384e-08 | au |
|
| | Orbit Determination Parameters
Additional Information
|